Starlink 30944

operational
NORAD ID: 58451 Int'l Des: 2023-183 Owner: SPXS Country: US Constellation: starlink
LEOCIRCULAR

Starlink 30944について

説明を読み込み中...

リアルタイム位置

3D地球を読み込み中...

次回通過

高度履歴

Altitude vs Time

uPlot chart will show altitude changes over time

軌道要素

1 58451U 23183Q 25352.08883347 .00000225 00000-0 31751-4 0 9998
2 58451 43.0030 126.3528 0001290 272.9726 87.0969 15.02540841114419
Epoch: Dec 18, 2025 • Age: 17 hours

現在のステータス

高度 559.7 km
速度 7.59 km/s
衛星直下点 25.92°N, 96.87°W
打ち上げ日 Nov 28, 2023
運用期間 2 years
タイプ internet

技術仕様

分類 Payload
質量 730.00 kg
乾燥質量 700.00 kg
総質量 730.00 kg
長さ 0.30 m
直径 4.10 m
スパン 29.00 m
形状 Box + pan
製造者 SPXS
バスタイプ Starlink V2M
フェーズステータス In Orbit
所有者/国 SPXS/US

大規模コンステレーション

Loading constellations...